| time (UTC) | temp C | wind direction | speed KPH | gust KPH | rain 1hr cm | rain 24hr cm | rain mn cm | humidity % | barometer mb |
| 20260503010027 | 15 | 304 | 3.2 | 8.0 | 0.00 | 0.00 | 0.00 | 41 | 1007.1 |
| 20260503005523 | 15 | 204 | 3.2 | 4.8 | 0.00 | 0.00 | 0.00 | 40 | 1007.1 |
| 20260503005021 | 15 | 200 | 0.0 | 4.8 | 0.00 | 0.00 | 0.00 | 41 | 1006.9 |
| 20260503004516 | 15 | 280 | 0.0 | 8.0 | 0.00 | 0.00 | 0.00 | 41 | 1006.9 |
| 20260503004015 | 15 | 224 | 3.2 | 6.4 | 0.00 | 0.00 | 0.00 | 39 | 1007.2 |
| 20260503003511 | 15 | 246 | 1.6 | 6.4 | 0.00 | 0.00 | 0.00 | 40 | 1007.2 |
| 20260503003009 | 15 | 212 | 0.0 | 3.2 | 0.00 | 0.00 | 0.00 | 40 | 1007.3 |
| 20260503002506 | 15 | 314 | 1.6 | 4.8 | 0.00 | 0.00 | 0.00 | 41 | 1007.1 |
| 20260503002002 | 15 | 114 | 0.0 | 4.8 | 0.00 | 0.00 | 0.00 | 40 | 1007.2 |
| 20260503001459 | 15 | 19 | 4.8 | 4.8 | 0.00 | 0.00 | 0.00 | 39 | 1007.3 |
| 20260503000956 | 15 | 221 | 1.6 | 4.8 | 0.00 | 0.00 | 0.00 | 38 | 1007.2 |
| 20260503000453 | 15 | 128 | 3.2 | 8.0 | 0.00 | 0.00 | 0.00 | 39 | 1007.4 |
| 20260502235950 | 16 | 205 | 0.0 | 4.8 | 0.00 | 0.00 | 0.00 | 39 | 1007.3 |
| 20260502235447 | 16 | 302 | 1.6 | 4.8 | 0.00 | 0.00 | 0.00 | 37 | 1007.4 |
| 20260502234944 | 16 | 24 | 0.0 | 4.8 | 0.00 | 0.00 | 0.00 | 39 | 1007.5 |
| 20260502234441 | 16 | 271 | 0.0 | 8.0 | 0.00 | 0.00 | 0.00 | 37 | 1007.5 |
| 20260502233938 | 16 | 255 | 3.2 | 11.3 | 0.00 | 0.00 | 0.00 | 36 | 1007.3 |
| 20260502233433 | 16 | 44 | 3.2 | 9.7 | 0.00 | 0.00 | 0.00 | 36 | 1007.8 |
| 20260502232931 | 16 | 231 | 0.0 | 9.7 | 0.00 | 0.00 | 0.00 | 38 | 1007.6 |
| 20260502232427 | 16 | 268 | 4.8 | 9.7 | 0.00 | 0.00 | 0.00 | 35 | 1007.5 |
| 20260502231924 | 16 | 114 | 3.2 | 9.7 | 0.00 | 0.00 | 0.00 | 35 | 1007.6 |
| 20260502231421 | 16 | 45 | 1.6 | 8.0 | 0.00 | 0.00 | 0.00 | 37 | 1007.5 |
| 20260502230919 | 16 | 294 | 6.4 | 14.5 | 0.00 | 0.00 | 0.00 | 35 | 1007.8 |
| 20260502230417 | 16 | 126 | 3.2 | 9.7 | 0.00 | 0.00 | 0.00 | 35 | 1007.7 |
| 20260502225915 | 16 | 332 | 4.8 | 6.4 | 0.00 | 0.00 | 0.00 | 34 | 1007.6 |
| 20260502225411 | 16 | 19 | 1.6 | 8.0 | 0.00 | 0.00 | 0.00 | 35 | 1007.6 |
| 20260502224908 | 16 | 29 | 1.6 | 12.9 | 0.00 | 0.00 | 0.00 | 34 | 1007.8 |
| 20260502224403 | 16 | 269 | 4.8 | 14.5 | 0.00 | 0.00 | 0.00 | 35 | 1008.1 |
| 20260502223901 | 16 | 303 | 4.8 | 11.3 | 0.00 | 0.00 | 0.00 | 34 | 1008.0 |
| 20260502223358 | 17 | 261 | 6.4 | 16.1 | 0.00 | 0.00 | 0.00 | 33 | 1008.2 |
| 20260502222856 | 18 | 257 | 1.6 | 11.3 | 0.00 | 0.00 | 0.00 | 32 | 1008.2 |
| 20260502222348 | 17 | 348 | 4.8 | 11.3 | 0.00 | 0.00 | 0.00 | 32 | 1008.3 |
| 20260502221843 | 17 | 232 | 6.4 | 8.0 | 0.00 | 0.00 | 0.00 | 33 | 1008.2 |
| 20260502221340 | 17 | 18 | 3.2 | 17.7 | 0.00 | 0.00 | 0.00 | 34 | 1008.1 |
| 20260502220837 | 18 | 1 | 9.7 | 17.7 | 0.00 | 0.00 | 0.00 | 32 | 1008.5 |
| 20260502220333 | 17 | 111 | 1.6 | 22.5 | 0.00 | 0.00 | 0.00 | 32 | 1008.3 |
| 20260502215830 | 17 | 173 | 3.2 | 16.1 | 0.00 | 0.00 | 0.00 | 32 | 1008.6 |
| 20260502215327 | 17 | 308 | 9.7 | 24.1 | 0.00 | 0.00 | 0.00 | 32 | 1008.6 |
| 20260502214824 | 17 | 322 | 6.4 | 17.7 | 0.00 | 0.00 | 0.00 | 32 | 1008.7 |
| 20260502214320 | 17 | 247 | 3.2 | 19.3 | 0.00 | 0.00 | 0.00 | 33 | 1008.6 |
| 20260502213818 | 17 | 179 | 3.2 | 35.4 | 0.00 | 0.00 | 0.00 | 33 | 1008.6 |
| 20260502213315 | 18 | 216 | 4.8 | 20.9 | 0.00 | 0.00 | 0.00 | 32 | 1008.6 |
| 20260502212814 | 18 | 347 | 4.8 | 9.7 | 0.00 | 0.00 | 0.00 | 32 | 1008.8 |
| 20260502212311 | 18 | 46 | 4.8 | 14.5 | 0.00 | 0.00 | 0.00 | 32 | 1008.9 |
| 20260502211808 | 17 | 97 | 1.6 | 9.7 | 0.00 | 0.00 | 0.00 | 36 | 1009.1 |
| 20260502211258 | 16 | 217 | 6.4 | 9.7 | 0.00 | 0.00 | 0.00 | 35 | 1008.9 |
| 20260502210755 | 17 | 291 | 6.4 | 17.7 | 0.00 | 0.00 | 0.00 | 32 | 1009.1 |
| 20260502210252 | 17 | 302 | 3.2 | 16.1 | 0.00 | 0.00 | 0.00 | 32 | 1009.1 |
| 20260502205749 | 18 | 286 | 4.8 | 8.0 | 0.00 | 0.00 | 0.00 | 32 | 1009.4 |
| 20260502205240 | 18 | 108 | 3.2 | 9.7 | 0.00 | 0.00 | 0.00 | 30 | 1009.5 |
| 20260502204738 | 17 | 247 | 4.8 | 12.9 | 0.00 | 0.00 | 0.00 | 32 | 1009.2 |
| 20260502204235 | 17 | 222 | 3.2 | 20.9 | 0.00 | 0.00 | 0.00 | 31 | 1009.5 |
| 20260502203732 | 17 | 185 | 3.2 | 16.1 | 0.00 | 0.00 | 0.00 | 32 | 1009.6 |
| 20260502203230 | 18 | 280 | 3.2 | 8.0 | 0.00 | 0.00 | 0.00 | 34 | 1009.5 |
| 20260502202724 | 17 | 232 | 6.4 | 14.5 | 0.00 | 0.00 | 0.00 | 36 | 1009.8 |
| 20260502202223 | 17 | 346 | 6.4 | 17.7 | 0.00 | 0.00 | 0.00 | 31 | 1009.6 |
| 20260502201720 | 17 | 359 | 3.2 | 11.3 | 0.00 | 0.00 | 0.00 | 34 | 1009.9 |
| 20260502201216 | 17 | 231 | 3.2 | 9.7 | 0.00 | 0.00 | 0.00 | 32 | 1009.9 |
| 20260502200712 | 17 | 21 | 6.4 | 16.1 | 0.00 | 0.00 | 0.00 | 33 | 1010.0 |
| 20260502200209 | 17 | 205 | 3.2 | 12.9 | 0.00 | 0.00 | 0.00 | 31 | 1010.2 |
| 20260502195707 | 16 | 210 | 3.2 | 17.7 | 0.00 | 0.00 | 0.00 | 33 | 1010.2 |
| 20260502195203 | 17 | 201 | 4.8 | 11.3 | 0.00 | 0.00 | 0.00 | 37 | 1010.2 |
| 20260502194659 | 16 | 24 | 0.0 | 14.5 | 0.00 | 0.00 | 0.00 | 31 | 1010.3 |
| 20260502194150 | 17 | 62 | 4.8 | 17.7 | 0.00 | 0.00 | 0.00 | 32 | 1010.5 |
| 20260502193647 | 17 | 238 | 4.8 | 8.0 | 0.00 | 0.00 | 0.00 | 37 | 1010.4 |
| 20260502193144 | 16 | 175 | 0.0 | 12.9 | 0.00 | 0.00 | 0.00 | 34 | 1010.4 |
| 20260502192639 | 16 | 294 | 9.7 | 16.1 | 0.00 | 0.00 | 0.00 | 31 | 1010.7 |
| 20260502192137 | 17 | 206 | 3.2 | 8.0 | 0.00 | 0.00 | 0.00 | 38 | 1010.9 |
| 20260502191633 | 16 | 219 | 8.0 | 11.3 | 0.00 | 0.00 | 0.00 | 31 | 1010.9 |
| 20260502191125 | 16 | 186 | 1.6 | 6.4 | 0.00 | 0.00 | 0.00 | 38 | 1010.9 |
| 20260502190623 | 16 | 279 | 3.2 | 9.7 | 0.00 | 0.00 | 0.00 | 35 | 1010.9 |
| 20260502190121 | 15 | 259 | 4.8 | 22.5 | 0.00 | 0.00 | 0.00 | 34 | 1011.0 |
| 20260502185615 | 16 | 250 | 3.2 | 9.7 | 0.00 | 0.00 | 0.00 | 37 | 1011.2 |
| 20260502185112 | 16 | 294 | 4.8 | 11.3 | 0.00 | 0.00 | 0.00 | 34 | 1011.3 |
| 20260502184608 | 15 | 248 | 8.0 | 14.5 | 0.00 | 0.00 | 0.00 | 31 | 1011.3 |
| 20260502184103 | 15 | 260 | 6.4 | 17.7 | 0.00 | 0.00 | 0.00 | 32 | 1011.6 |
| 20260502183600 | 15 | 30 | 1.6 | 11.3 | 0.00 | 0.00 | 0.00 | 35 | 1011.6 |
| 20260502183056 | 16 | 233 | 3.2 | 14.5 | 0.00 | 0.00 | 0.00 | 32 | 1011.7 |
| 20260502182552 | 15 | 223 | 3.2 | 16.1 | 0.00 | 0.00 | 0.00 | 34 | 1011.9 |
| 20260502182047 | 15 | 310 | 3.2 | 12.9 | 0.00 | 0.00 | 0.00 | 33 | 1011.6 |
| 20260502181545 | 15 | 53 | 4.8 | 19.3 | 0.00 | 0.00 | 0.00 | 34 | 1011.8 |
| 20260502181043 | 15 | 246 | 4.8 | 20.9 | 0.00 | 0.00 | 0.00 | 35 | 1011.9 |
| 20260502180541 | 15 | 55 | 8.0 | 20.9 | 0.00 | 0.00 | 0.00 | 34 | 1012.0 |
| 20260502170454 | 14 | 247 | 6.4 | 16.1 | 0.00 | 0.00 | 0.00 | 35 | 1012.7 |
| 20260502163937 | 13 | 238 | 1.6 | 8.0 | 0.00 | 0.00 | 0.00 | 36 | 1013.0 |
| 20260502163433 | 12 | 229 | 4.8 | 12.9 | 0.00 | 0.00 | 0.00 | 38 | 1013.1 |
| 20260502162931 | 13 | 320 | 9.7 | 20.9 | 0.00 | 0.00 | 0.00 | 37 | 1012.9 |
| 20260502162428 | 13 | 314 | 17.7 | 22.5 | 0.00 | 0.00 | 0.00 | 36 | 1012.9 |
| 20260502161926 | 13 | 203 | 1.6 | 22.5 | 0.00 | 0.00 | 0.00 | 38 | 1013.1 |
| 20260502161421 | 13 | 310 | 20.9 | 22.5 | 0.00 | 0.00 | 0.00 | 36 | 1013.2 |
| 20260502160919 | 13 | 79 | 3.2 | 24.1 | 0.00 | 0.00 | 0.00 | 36 | 1013.1 |
| 20260502160417 | 12 | 83 | 4.8 | 25.7 | 0.00 | 0.00 | 0.00 | 39 | 1013.1 |
| 20260502151855 | 12 | 336 | 6.4 | 22.5 | 0.00 | 0.00 | 0.00 | 41 | 1013.2 |
| 20260502151351 | 13 | 111 | 3.2 | 19.3 | 0.00 | 0.00 | 0.00 | 40 | 1013.5 |
| 20260502150850 | 13 | 263 | 4.8 | 17.7 | 0.00 | 0.00 | 0.00 | 40 | 1013.5 |
| 20260502150345 | 12 | 194 | 4.8 | 14.5 | 0.00 | 0.00 | 0.00 | 44 | 1013.5 |
| 20260502130734 | 8 | 249 | 3.2 | 8.0 | 0.00 | 0.00 | 0.00 | 55 | 1013.6 |
| 20260502130231 | 8 | 226 | 3.2 | 4.8 | 0.00 | 0.00 | 0.00 | 57 | 1013.4 |
| 20260502123717 | 6 | 262 | 3.2 | 9.7 | 0.00 | 0.00 | 0.00 | 58 | 1013.7 |
| 20260502123214 | 6 | 355 | 0.0 | 9.7 | 0.00 | 0.00 | 0.00 | 60 | 1013.7 |
| 20260502122710 | 6 | 357 | 1.6 | 9.7 | 0.00 | 0.00 | 0.00 | 60 | 1013.8 |
| 20260502122207 | 5 | 235 | 0.0 | 6.4 | 0.00 | 0.00 | 0.00 | 60 | 1013.8 |
| 20260502121705 | 5 | 291 | 4.8 | 9.7 | 0.00 | 0.00 | 0.00 | 60 | 1013.8 |
| 20260502121203 | 5 | 354 | 3.2 | 8.0 | 0.00 | 0.00 | 0.00 | 61 | 1013.7 |
| 20260502120659 | 5 | 4 | 1.6 | 8.0 | 0.00 | 0.00 | 0.00 | 62 | 1013.6 |
| 20260502120156 | 4 | 276 | 3.2 | 9.7 | 0.00 | 0.00 | 0.00 | 64 | 1013.6 |
| 20260502115654 | 3 | 282 | 0.0 | 8.0 | 0.00 | 0.00 | 0.00 | 66 | 1013.5 |
| 20260502115149 | 2 | 256 | 1.6 | 9.7 | 0.00 | 0.00 | 0.00 | 68 | 1013.7 |
| 20260502114646 | 2 | 294 | 4.8 | 9.7 | 0.00 | 0.00 | 0.00 | 67 | 1013.5 |
| 20260502114143 | 2 | 104 | 1.6 | 6.4 | 0.00 | 0.00 | 0.00 | 67 | 1013.5 |
| 20260502113641 | 2 | 174 | 0.0 | 11.3 | 0.00 | 0.00 | 0.00 | 67 | 1013.6 |
| 20260502113139 | 2 | 287 | 0.0 | 6.4 | 0.00 | 0.00 | 0.00 | 68 | 1013.5 |
| 20260502112636 | 1 | 85 | 3.2 | 9.7 | 0.00 | 0.00 | 0.00 | 70 | 1013.6 |
| 20260502112134 | 1 | 53 | 0.0 | 4.8 | 0.00 | 0.00 | 0.00 | 72 | 1013.7 |
| 20260502111631 | 1 | 273 | 0.0 | 8.0 | 0.00 | 0.00 | 0.00 | 72 | 1013.5 |
| 20260502111128 | 1 | 329 | 1.6 | 8.0 | 0.00 | 0.00 | 0.00 | 72 | 1013.6 |
| 20260502110620 | 1 | 276 | 3.2 | 9.7 | 0.00 | 0.00 | 0.00 | 73 | 1013.4 |
| 20260502110117 | 1 | 243 | 0.0 | 4.8 | 0.00 | 0.00 | 0.00 | 73 | 1013.6 |
| 20260502105615 | 0 | 295 | 1.6 | 4.8 | 0.00 | 0.00 | 0.00 | 74 | 1013.3 |
| 20260502105112 | 0 | 337 | 1.6 | 3.2 | 0.00 | 0.00 | 0.00 | 75 | 1013.4 |
| 20260502104609 | 0 | 171 | 1.6 | 6.4 | 0.00 | 0.00 | 0.00 | 75 | 1013.5 |
| 20260502104106 | 0 | 356 | 0.0 | 4.8 | 0.00 | 0.00 | 0.00 | 75 | 1013.5 |
| 20260502103604 | 1 | 197 | 0.0 | 4.8 | 0.00 | 0.00 | 0.00 | 73 | 1013.4 |
| 20260502103102 | 1 | 262 | 4.8 | 6.4 | 0.00 | 0.00 | 0.00 | 73 | 1013.4 |
| 20260502102557 | 1 | 339 | 0.0 | 6.4 | 0.00 | 0.00 | 0.00 | 73 | 1013.4 |
| 20260502102055 | 1 | 252 | 0.0 | 8.0 | 0.00 | 0.00 | 0.00 | 73 | 1013.4 |
| 20260502101553 | 1 | 280 | 0.0 | 6.4 | 0.00 | 0.00 | 0.00 | 72 | 1013.6 |
| 20260502101051 | 1 | 255 | 3.2 | 8.0 | 0.00 | 0.00 | 0.00 | 72 | 1013.7 |
| 20260502100549 | 1 | 227 | 1.6 | 4.8 | 0.00 | 0.00 | 0.00 | 72 | 1013.6 |
| 20260502091524 | 1 | 257 | 0.0 | 3.2 | 0.00 | 0.00 | 0.00 | 70 | 1013.6 |
| 20260502091021 | 2 | 240 | 1.6 | 1.6 | 0.00 | 0.00 | 0.00 | 70 | 1013.5 |
| 20260502090518 | 2 | 217 | 0.0 | 3.2 | 0.00 | 0.00 | 0.00 | 70 | 1013.4 |
| 20260502071407 | 2 | 220 | 1.6 | 4.8 | 0.00 | 0.00 | 0.00 | 66 | 1013.7 |
| 20260502070905 | 2 | 225 | 1.6 | 4.8 | 0.00 | 0.00 | 0.00 | 67 | 1013.7 |
| 20260502070402 | 2 | 323 | 0.0 | 3.2 | 0.00 | 0.00 | 0.00 | 67 | 1013.7 |
| 20260502065901 | 2 | 293 | 1.6 | 3.2 | 0.00 | 0.00 | 0.00 | 66 | 1013.9 |
| 20260502065359 | 2 | 244 | 0.0 | 3.2 | 0.00 | 0.00 | 0.00 | 68 | 1013.9 |
| 20260502064856 | 2 | 49 | 0.0 | 1.6 | 0.00 | 0.00 | 0.00 | 69 | 1013.7 |
| 20260502064354 | 2 | 267 | 0.0 | 3.2 | 0.00 | 0.00 | 0.00 | 69 | 1013.8 |
| 20260502063851 | 2 | 345 | 0.0 | 3.2 | 0.00 | 0.00 | 0.00 | 70 | 1014.1 |
| 20260502063349 | 2 | 337 | 3.2 | 3.2 | 0.00 | 0.00 | 0.00 | 70 | 1013.8 |
| 20260502062846 | 2 | 310 | 0.0 | 3.2 | 0.00 | 0.00 | 0.00 | 68 | 1013.8 |
| 20260502062343 | 2 | 269 | 0.0 | 3.2 | 0.00 | 0.00 | 0.00 | 69 | 1014.0 |
| 20260502061842 | 2 | 282 | 1.6 | 3.2 | 0.00 | 0.00 | 0.00 | 69 | 1014.0 |
| 20260502061339 | 2 | 273 | 1.6 | 3.2 | 0.00 | 0.00 | 0.00 | 71 | 1014.0 |
| 20260502060835 | 2 | 350 | 0.0 | 1.6 | 0.00 | 0.00 | 0.00 | 71 | 1014.0 |
| 20260502060330 | 1 | 25 | 0.0 | 4.8 | 0.00 | 0.00 | 0.00 | 73 | 1014.1 |
| 20260502055828 | 2 | 0 | 0.0 | 3.2 | 0.00 | 0.00 | 0.00 | 70 | 1014.0 |
| 20260502055326 | 2 | 346 | 0.0 | 3.2 | 0.00 | 0.00 | 0.00 | 67 | 1013.9 |
| 20260502054825 | 3 | 297 | 0.0 | 3.2 | 0.00 | 0.00 | 0.00 | 66 | 1013.8 |
| 20260502054323 | 3 | 208 | 1.6 | 3.2 | 0.00 | 0.00 | 0.00 | 67 | 1013.7 |
| 20260502053820 | 3 | 258 | 1.6 | 3.2 | 0.00 | 0.00 | 0.00 | 67 | 1013.9 |
| 20260502053317 | 3 | 259 | 0.0 | 3.2 | 0.00 | 0.00 | 0.00 | 66 | 1013.9 |
| 20260502052815 | 2 | 290 | 0.0 | 1.6 | 0.00 | 0.00 | 0.00 | 66 | 1013.8 |
| 20260502052312 | 2 | 254 | 0.0 | 1.6 | 0.00 | 0.00 | 0.00 | 66 | 1013.8 |
| 20260502051810 | 3 | 224 | 0.0 | 1.6 | 0.00 | 0.00 | 0.00 | 66 | 1013.8 |
| 20260502051309 | 3 | 255 | 1.6 | 3.2 | 0.00 | 0.00 | 0.00 | 66 | 1013.7 |
| 20260502050804 | 3 | 321 | 0.0 | 3.2 | 0.00 | 0.00 | 0.00 | 66 | 1013.8 |
| 20260502050301 | 3 | 304 | 0.0 | 1.6 | 0.00 | 0.00 | 0.00 | 66 | 1013.7 |
| 20260502045758 | 3 | 184 | 0.0 | 1.6 | 0.00 | 0.00 | 0.00 | 66 | 1013.7 |
| 20260502045255 | 3 | 149 | 0.0 | 1.6 | 0.00 | 0.00 | 0.00 | 65 | 1013.9 |
| 20260502044752 | 3 | 203 | 0.0 | 3.2 | 0.00 | 0.00 | 0.00 | 64 | 1013.7 |
| 20260502044248 | 3 | 197 | 0.0 | 3.2 | 0.00 | 0.00 | 0.00 | 63 | 1013.8 |
| 20260502043745 | 3 | 193 | 0.0 | 1.6 | 0.00 | 0.00 | 0.00 | 62 | 1013.8 |
| 20260502043243 | 3 | 197 | 0.0 | 3.2 | 0.00 | 0.00 | 0.00 | 62 | 1013.6 |
| 20260502042742 | 3 | 171 | 0.0 | 1.6 | 0.00 | 0.00 | 0.00 | 64 | 1013.8 |
| 20260502042240 | 3 | 279 | 0.0 | 1.6 | 0.00 | 0.00 | 0.00 | 62 | 1013.7 |
| 20260502041737 | 3 | 234 | 0.0 | 3.2 | 0.00 | 0.00 | 0.00 | 62 | 1013.7 |
| 20260502041234 | 3 | 286 | 0.0 | 3.2 | 0.00 | 0.00 | 0.00 | 63 | 1013.8 |
| 20260502040731 | 2 | 287 | 0.0 | 3.2 | 0.00 | 0.00 | 0.00 | 69 | 1013.9 |
| 20260502040228 | 2 | 9 | 0.0 | 1.6 | 0.00 | 0.00 | 0.00 | 68 | 1013.7 |
| 20260502035724 | 2 | 311 | 0.0 | 3.2 | 0.00 | 0.00 | 0.00 | 67 | 1013.7 |
| 20260502035221 | 2 | 325 | 0.0 | 3.2 | 0.00 | 0.00 | 0.00 | 67 | 1013.7 |
| 20260502034718 | 2 | 325 | 0.0 | 3.2 | 0.00 | 0.00 | 0.00 | 67 | 1013.9 |
| 20260502034217 | 2 | 13 | 0.0 | 0.0 | 0.00 | 0.00 | 0.00 | 67 | 1013.8 |
| 20260502033714 | 2 | 326 | 0.0 | 1.6 | 0.00 | 0.00 | 0.00 | 67 | 1013.9 |
| 20260502033212 | 3 | 359 | 1.6 | 3.2 | 0.00 | 0.00 | 0.00 | 66 | 1013.9 |
| 20260502032708 | 3 | 4 | 1.6 | 3.2 | 0.00 | 0.00 | 0.00 | 64 | 1013.7 |
| 20260502032204 | 3 | 338 | 1.6 | 1.6 | 0.00 | 0.00 | 0.00 | 62 | 1013.7 |
| 20260502031702 | 3 | 336 | 0.0 | 1.6 | 0.00 | 0.00 | 0.00 | 62 | 1013.7 |
| 20260502031200 | 4 | 345 | 1.6 | 3.2 | 0.00 | 0.00 | 0.00 | 61 | 1013.9 |
| 20260502030659 | 3 | 339 | 1.6 | 4.8 | 0.00 | 0.00 | 0.00 | 60 | 1013.7 |
| 20260502030156 | 3 | 334 | 0.0 | 1.6 | 0.00 | 0.00 | 0.00 | 62 | 1013.8 |
| 20260502025653 | 3 | 325 | 0.0 | 1.6 | 0.00 | 0.00 | 0.00 | 61 | 1013.9 |
| 20260502025151 | 3 | 19 | 0.0 | 1.6 | 0.00 | 0.00 | 0.00 | 60 | 1013.7 |
| 20260502024649 | 4 | 304 | 0.0 | 1.6 | 0.00 | 0.00 | 0.00 | 58 | 1013.9 |
| 20260502024147 | 5 | 19 | 0.0 | 3.2 | 0.00 | 0.00 | 0.00 | 55 | 1013.6 |
| 20260502023644 | 5 | 326 | 0.0 | 3.2 | 0.00 | 0.00 | 0.00 | 53 | 1013.7 |
| 20260502023141 | 4 | 312 | 3.2 | 3.2 | 0.00 | 0.00 | 0.00 | 55 | 1013.5 |
| 20260502022638 | 3 | 327 | 0.0 | 3.2 | 0.00 | 0.00 | 0.00 | 57 | 1013.8 |
| 20260502022135 | 4 | 304 | 0.0 | 1.6 | 0.00 | 0.00 | 0.00 | 56 | 1013.6 |
| 20260502021633 | 5 | 315 | 0.0 | 3.2 | 0.00 | 0.00 | 0.00 | 56 | 1013.6 |
| 20260502021130 | 5 | 318 | 0.0 | 3.2 | 0.00 | 0.00 | 0.00 | 53 | 1013.5 |
| 20260502020627 | 6 | 295 | 0.0 | 3.2 | 0.00 | 0.00 | 0.00 | 52 | 1013.4 |
| 20260502020123 | 6 | 249 | 0.0 | 3.2 | 0.00 | 0.00 | 0.00 | 50 | 1013.5 |
| 20260502015622 | 6 | 262 | 0.0 | 3.2 | 0.00 | 0.00 | 0.00 | 49 | 1013.5 |
| 20260502015118 | 7 | 297 | 0.0 | 3.2 | 0.00 | 0.00 | 0.00 | 50 | 1013.6 |
| 20260502014615 | 7 | 304 | 0.0 | 3.2 | 0.00 | 0.00 | 0.00 | 45 | 1013.2 |
| 20260502014112 | 7 | 347 | 1.6 | 3.2 | 0.00 | 0.00 | 0.00 | 45 | 1013.2 |
| 20260502013608 | 8 | 353 | 3.2 | 4.8 | 0.00 | 0.00 | 0.00 | 44 | 1013.4 |
| 20260502013104 | 8 | 348 | 3.2 | 8.0 | 0.00 | 0.00 | 0.00 | 43 | 1013.2 |
| 20260502012602 | 8 | 349 | 0.0 | 4.8 | 0.00 | 0.00 | 0.00 | 43 | 1013.2 |
| 20260502012059 | 8 | 347 | 0.0 | 6.4 | 0.00 | 0.00 | 0.00 | 44 | 1013.1 |
| 20260502011555 | 8 | 341 | 4.8 | 8.0 | 0.00 | 0.00 | 0.00 | 44 | 1013.2 |
| 20260502011052 | 8 | 344 | 3.2 | 4.8 | 0.00 | 0.00 | 0.00 | 44 | 1013.2 |
| 20260502010549 | 8 | 345 | 3.2 | 4.8 | 0.00 | 0.00 | 0.00 | 44 | 1013.1 |